Tracking 33446 objects as of 10-Mar-2026
HD Live streaming from Space Station
objects crossing your sky now

HULIANWANG DIGUI-91

Track HULIANWANG DIGUI-91 now!
10-day predictions


NORAD ID: 65999
Int'l Code: 2025-231E
Perigee: 1,155.9 km
Apogee: 1,156.9 km
Inclination: 50.0 °
Period: 108.3 minutes
Semi major axis: 7527 km
RCS: Unknown
Launch date: October 16, 2025
Source: People's Republic of China (PRC)
Launch site: Wenchang Satellite Launch Center (WSC)
Your satellite tracking list
Your tracking list is empty




NASA's NSSDC Master Catalog

Two Line Element Set (TLE):
1 65999U 25231E   26069.12893679 -.00000073  00000-0  10994-3 0  9996
2 65999  50.0008 170.9458 0000637 211.8018 148.2815 13.29330514 19712
Source of the keplerian elements: AFSPC